Regional Weather Roundup
Issued by NWS

Home | Current Version | Previous Version | Text Only | Print | Product List | Glossary Off
Versions: 1 2 3 4 5 6 7 8 9 10 11 12 13 14 15 16 17 18 19 20 21 22 23 24 25 26 27 28 29 30 31 32 33 34 35 36 37 38 39 40 41 42 43 44 45 46 47 48 49 50

000
ASUS43 KLOT 301608
RWRIL

ILLINOIS REGIONAL WEATHER ROUNDUP
NATIONAL WEATHER SERVICE CHICAGO/ROMEOVILLE IL
1100 AM CDT SAT MAY 30 2015

NOTE: "FAIR" INDICATES FEW OR NO CLOUDS BELOW 12,000 FEET WITH NO
SIGNIFICANT WEATHER AND/OR OBSTRUCTIONS TO VISIBILITY.

* THESE STATIONS ARE NOT UNDER NWS QUALITY CONTROL. THEY ALSO MAY NOT
  REPORT WEATHER SUCH AS PRECIPITATION OR FOG.

ILZ001-002-007-009-015-016-024-301700-
NORTHWEST ILLINOIS

CITY           SKY/WX    TMP DP  RH WIND       PRES   REMARKS
MOLINE         LGT RAIN  69  66  90 SW5       29.98R
STERLING*      CLOUDY    66  64  94 W3        30.00R
SAVANNA*       LGT RAIN  70  64  81 S3        29.98R
$$

ILZ003-004-008-010-011-017-018-301700-
NORTH CENTRAL ILLINOIS

CITY           SKY/WX    TMP DP  RH WIND       PRES   REMARKS
ROCKFORD       LGT RAIN  68  65  90 S5        30.00R FOG
FREEPORT*      HVY RAIN  66  64  91 CALM      30.00R VSB 3/4
ROCHELLE*      LGT RAIN  66  65  94 SW5       30.00S
DE KALB*       DRIZZLE   65  63  92 SW3       30.01S
PERU*          CLOUDY    68  65  88 CALM      30.00S
$$

ILZ005-006-012>014-019>023-301700-
NORTHEAST ILLINOIS

CITY           SKY/WX    TMP DP  RH WIND       PRES   REMARKS
CHICAGO-OHARE  LGT RAIN  56  54  93 NE14      30.02R
CHICAGO-MIDWAY LGT RAIN  70  65  84 SW5       30.00R FOG
AURORA         LGT RAIN  69  63  81 CALM      30.00S
LANSING*       LGT RAIN  68  62  81 CALM      30.01S
JOLIET*        LGT RAIN  69  67  93 CALM      29.99F
WAUKEGAN       LGT RAIN  49  48  97 N14G20    30.04R
DUPAGE AIRPORT LGT RAIN  68  64  87 S6        30.00R
KANKAKEE*      CLOUDY    70  66  89 E5        30.00F
WHEELING       LGT RAIN  52  50  93 N10       30.05R
MORRIS*        LGT RAIN  68  65  89 CALM      29.98S
ROMEOVILLE*    RAIN      67  65  91 N5        30.00F
NORTHERLY ISL    N/A     54  52  93 N16         N/A
$$

LMZ740>746-301700-
SOUTHERN LAKE MICHIGAN

STATION/POSITION SKY/WX   TEMP    WIND        PRES    VSBY  WAVE
                          AIR SEA DIR/SP/G                  HT/PER
                          (F)     (DEG/KT/KT) (MB)    (MI)  (FT/S)
SOUTHERN BUOY              41 38  360/  6/  8 1017.0R         1
HARRISON CRIB              65      70/  3/  3   N/A
BURNHAM HARBOR             54     360/ 13/ 17   N/A
CALUMET HARBOR             68     160/  4/  6   N/A
BURNS HARBOR               64     280/  9/  9 1016.3F
MICHIGAN CITY              69     190/  2/  2   N/A
MICHIGAN CITY 6N           60 57  280/  4/  8   N/A           0
ST. JOSEPH                 61 57  290/  4/  4   N/A           1
$$

ILZ025>027-034>036-040-047-049-050-058-095>099-301700-
WEST-CENTRAL ILLINOIS

CITY           SKY/WX    TMP DP  RH WIND       PRES   REMARKS
QUINCY         LGT RAIN  68  65  90 NW5       30.00R
GALESBURG*     RAIN      66  65  95 SW3       29.99S
MACOMB*        LGT RAIN  67  65  91 CALM      30.01S
JACKSONVILLE*  RAIN      69  67  92 CALM      29.98S
PITTSFIELD*    LGT RAIN  68  65  90 CALM      30.00S
$$

ILZ028>032-037-038-041>044-048-051>054-059>061-301700-
CENTRAL ILLINOIS

CITY           SKY/WX    TMP DP  RH WIND       PRES   REMARKS
PONTIAC        CLOUDY    70  68  93 E8        30.00S
BLOOMINGTON    CLOUDY    70  67  90 SE3       30.00S
DECATUR        CLOUDY    72  67  84 VRB5      29.98R
PEORIA         LGT RAIN  71  66  84 CALM      29.99S
LACON*         LGT RAIN  67  64  89 CALM      29.99R
LINCOLN*       DRIZZLE   71  67  88 SE3       29.97R
SPRINGFIELD    LGT RAIN  72  68  87 N3        29.98S
TAYLORVILLE    CLOUDY    72  66  83 CALM      29.97F
$$

ILZ033-039-045-046-055>057-062-063-301700-
EAST-CENTRAL ILLINOIS

CITY           SKY/WX    TMP DP  RH WIND       PRES   REMARKS
CHAMPAIGN      CLOUDY    73  68  84 SE7       29.98F
DANVILLE*      CLOUDY    71  68  90 NE3       29.96F
RANTOUL*       CLOUDY    73  68  87 E8        29.98S
MATTOON        PTSUNNY   75  70  83 S7        29.96F
PARIS*         PTSUNNY   81  69  67 S10G16    29.98F HX  83
$$

ILZ079-100>102-301700-
SOUTHWEST ILLINOIS

CITY           SKY/WX    TMP DP  RH WIND       PRES   REMARKS
ALTON          DRIZZLE   72  72 100 SE6       29.97S
BELLEVILLE     PTSUNNY   75  73  93 SE6       29.94S
CAHOKIA*       CLOUDY    72  67  84 CALM      29.95F
SPARTA*        CLOUDY    72  69  89 CALM      29.97S
$$

ILZ064>066-069>071-074>076-080>082-084>086-088>090-092>094-301700-
SOUTH-CENTRAL ILLINOIS

CITY           SKY/WX    TMP DP  RH WIND       PRES   REMARKS
CARBONDALE     PTSUNNY   79  69  71 S12       29.96F HX  81
CAIRO*         CLOUDY    77  68  72 S12       29.97S
EFFINGHAM*     PTSUNNY   77  67  71 SE7       29.98F
MARION         PTSUNNY   79  70  73 S9        29.98F HX  81
MT. VERNON     PTSUNNY   77  68  73 S8        29.98S
CENTRALIA*     PTSUNNY   78  69  73 S7        29.96F HX  80
SALEM*         PTSUNNY   78  69  73 S7        29.97S HX  81
METROPOLIS*    PTSUNNY   79  68  69 S13       29.98S HX  82
$$

ILZ067-068-072-073-078-083-087-091-301700-
SOUTHEAST ILLINOIS

CITY           SKY/WX    TMP DP  RH WIND       PRES   REMARKS
LAWRENCEVILLE  PTSUNNY   82  68  62 S13       29.99F HX  85
FLORA*         TSTM      71  67  88 SW12      29.99R
FAIRFIELD*     CLOUDY    81  69  66 S13       29.96F HX  84
HARRISBURG*    MOSUNNY   80  68  67 S10       29.99S HX  82
ROBINSON*      PTSUNNY   80  67  64 SW9       29.99F HX  82
CARMI*         PTSUNNY   82  63  51 S13       29.98F HX  83
$$

ABBREVIATIONS USED IN REMARKS
   TC - TEMPERATURE IN CELSIUS
  WCI - WIND CHILL INDEX
   HX - HEAT INDEX
  VSB - VISIBILITY
$$



USA.gov is the U.S. government's official web portal to all federal, state and local government web resources and services.